When you browse on this site, cookies collect data to enhance your experience and personalize the content and advertising you see.
Visit our Privacy Policy to learn more. By continuing to use the site, you agree to this use of cookies and data.
  • In Czech Republic
  • List of Countries
  • For 7 days
  • Water Temperature
  • Satellite Maps
  • Weather Map
  • Weather Widgets
  • user-avatar
    Login

    Hourly Weather Chester

    Today, 13 December, Thursday

    Time Temperature Precipitation Wind Pressure Humidity
    00:00 0°C° 0 mm 9 mps 760 mmHg 76%
    01:00 0°C° 0 mm 9 mps 760 mmHg 76%
    02:00 0°C° 0 mm 9 mps 760 mmHg 77%
    03:00 0°C° 0 mm 9 mps 759 mmHg 78%
    04:00 0°C° 0 mm 9 mps 759 mmHg 78%
    05:00 0°C° 0 mm 9 mps 759 mmHg 79%
    06:00 0°C° 0 mm 9 mps 759 mmHg 79%
    07:00 0°C° 0 mm 9 mps 760 mmHg 78%
    08:00 0°C° 0 mm 9 mps 760 mmHg 78%
    09:00 0°C° 0 mm 8 mps 760 mmHg 77%
    10:00 0°C° 0 mm 8 mps 760 mmHg 75%
    11:00 +1°C° 0 mm 8 mps 761 mmHg 73%
    12:00 +1°C° 0 mm 9 mps 761 mmHg 71%
    13:00 +1°C° 0 mm 8 mps 761 mmHg 71%
    14:00 +2°C° 0 mm 7 mps 761 mmHg 71%
    15:00 +2°C° 0 mm 7 mps 761 mmHg 71%
    16:00 +2°C° 0 mm 7 mps 762 mmHg 73%
    17:00 +1°C° 0 mm 6 mps 762 mmHg 74%
    18:00 +1°C° 0 mm 6 mps 763 mmHg 75%
    19:00 +1°C° 0 mm 6 mps 763 mmHg 77%
    20:00 0°C° 0 mm 5 mps 764 mmHg 78%
    21:00 0°C° 0 mm 5 mps 764 mmHg 79%
    22:00 0°C° 0 mm 5 mps 765 mmHg 81%
    23:00 -1°C° 0 mm 4 mps 765 mmHg 82%

    Tomorrow, 14 December, Friday

    Time Temperature Precipitation Wind Pressure Humidity
    00:00 -1°C° 0 mm 4 mps 765 mmHg 84%
    01:00 -1°C° 0 mm 4 mps 765 mmHg 84%
    02:00 -1°C° 0 mm 4 mps 765 mmHg 85%
    03:00 -1°C° 0 mm 4 mps 765 mmHg 85%
    04:00 -1°C° 0 mm 4 mps 765 mmHg 86%
    05:00 -2°C° 0 mm 4 mps 766 mmHg 87%
    06:00 -1°C° 0 mm 3 mps 766 mmHg 88%
    07:00 -2°C° 0 mm 4 mps 766 mmHg 87%
    08:00 -2°C° 0 mm 4 mps 766 mmHg 86%
    09:00 -1°C° 0 mm 4 mps 766 mmHg 85%
    10:00 0°C° 0 mm 5 mps 766 mmHg 79%
    11:00 +1°C° 0 mm 5 mps 766 mmHg 74%
    12:00 +2°C° 0 mm 6 mps 766 mmHg 68%
    13:00 +1°C° 0 mm 6 mps 765 mmHg 69%
    14:00 +1°C° 0 mm 5 mps 765 mmHg 70%
    15:00 +1°C° 0 mm 5 mps 765 mmHg 71%
    16:00 +1°C° 0 mm 5 mps 765 mmHg 73%
    17:00 -1°C° 0 mm 6 mps 765 mmHg 74%
    18:00 -1°C° 0 mm 6 mps 764 mmHg 76%
    19:00 -1°C° 0 mm 6 mps 764 mmHg 77%
    20:00 -1°C° 0 mm 6 mps 764 mmHg 78%
    21:00 -1°C° 0 mm 6 mps 764 mmHg 79%
    22:00 -1°C° 0 mm 6 mps 764 mmHg 78%
    23:00 -1°C° 0 mm 7 mps 763 mmHg 77%

    Day after tomorrow, 15 December, Saturday

    Time Temperature Precipitation Wind Pressure Humidity
    00:00 -1°C° 0 mm 7 mps 763 mmHg 76%
    01:00 -1°C° 0 mm 7 mps 762 mmHg 75%
    02:00 -1°C° 0 mm 8 mps 761 mmHg 74%
    03:00 -1°C° 0 mm 8 mps 760 mmHg 73%
    04:00 -1°C° 0 mm 8 mps 760 mmHg 74%
    05:00 -1°C° 0 mm 9 mps 759 mmHg 75%
    06:00 0°C° 0 mm 9 mps 758 mmHg 76%
    07:00 0°C° 0.4 mm 9 mps 757 mmHg 76%
    08:00 0°C° 0.4 mm 10 mps 756 mmHg 75%
    09:00 0°C° 0.4 mm 10 mps 756 mmHg 75%
    10:00 -1°C° 1.2 mm 11 mps 754 mmHg 79%
    11:00 -1°C° 1.2 mm 11 mps 753 mmHg 82%
    12:00 +1°C° 1.2 mm 11 mps 752 mmHg 85%
    13:00 +1°C° 0.4 mm 10 mps 751 mmHg 86%
    14:00 +1°C° 0.4 mm 10 mps 750 mmHg 88%
    15:00 +2°C° 0.4 mm 9 mps 749 mmHg 89%
    16:00 +2°C° 3.1 mm 8 mps 748 mmHg 91%
    17:00 +3°C° 3.1 mm 7 mps 747 mmHg 92%
    18:00 +4°C° 3.1 mm 7 mps 746 mmHg 94%
    19:00 +4°C° 3.1 mm 6 mps 745 mmHg 94%
    20:00 +6°C° 3.1 mm 5 mps 744 mmHg 94%
    21:00 +6°C° 3.1 mm 4 mps 743 mmHg 95%
    22:00 +6°C° 2.1 mm 5 mps 742 mmHg 94%
    23:00 +5°C° 2.1 mm 6 mps 742 mmHg 94%

    16 December, Sunday

    Time Temperature Precipitation Wind Pressure Humidity
    00:00 +5°C° 2.1 mm 8 mps 742 mmHg 93%
    01:00 +5°C° 2 mm 8 mps 743 mmHg 89%
    02:00 +5°C° 2 mm 9 mps 743 mmHg 85%
    03:00 +5°C° 2 mm 10 mps 744 mmHg 81%
    04:00 +5°C° 0.1 mm 10 mps 745 mmHg 79%
    05:00 +5°C° 0.1 mm 9 mps 746 mmHg 78%
    06:00 +3°C° 0.1 mm 9 mps 747 mmHg 77%
    07:00 +4°C° 0 mm 8 mps 748 mmHg 78%
    08:00 +4°C° 0 mm 7 mps 749 mmHg 80%
    09:00 +4°C° 0 mm 6 mps 750 mmHg 81%
    10:00 +4°C° 0 mm 6 mps 750 mmHg 79%
    11:00 +5°C° 0 mm 6 mps 751 mmHg 78%
    12:00 +5°C° 0 mm 6 mps 751 mmHg 77%
    13:00 +6°C° 0 mm 5 mps 752 mmHg 79%
    14:00 +6°C° 0 mm 5 mps 752 mmHg 80%
    15:00 +6°C° 0 mm 4 mps 752 mmHg 82%
    16:00 +5°C° 0.1 mm 3 mps 753 mmHg 85%
    17:00 +5°C° 0.1 mm 3 mps 753 mmHg 87%
    18:00 +4°C° 0.1 mm 3 mps 753 mmHg 89%
    19:00 +4°C° 0.1 mm 3 mps 754 mmHg 90%
    20:00 +4°C° 0.1 mm 3 mps 754 mmHg 90%
    21:00 +4°C° 0.1 mm 3 mps 755 mmHg 91%
    22:00 +3°C° 0 mm 3 mps 755 mmHg 90%
    23:00 +3°C° 0 mm 3 mps 756 mmHg 90%

    17 December, Monday

    Time Temperature Precipitation Wind Pressure Humidity
    00:00 +3°C° 0 mm 3 mps 756 mmHg 90%
    01:00 +3°C° 0 mm 3 mps 757 mmHg 89%
    02:00 +3°C° 0 mm 3 mps 757 mmHg 89%
    03:00 +3°C° 0 mm 3 mps 758 mmHg 89%
    04:00 +2°C° 0 mm 3 mps 758 mmHg 89%
    05:00 +2°C° 0 mm 3 mps 758 mmHg 90%
    06:00 +2°C° 0 mm 3 mps 759 mmHg 90%
    07:00 +2°C° 0 mm 3 mps 759 mmHg 90%
    08:00 +2°C° 0 mm 3 mps 759 mmHg 91%
    09:00 +2°C° 0 mm 3 mps 759 mmHg 91%
    10:00 +3°C° 0 mm 3 mps 760 mmHg 89%
    11:00 +4°C° 0 mm 3 mps 760 mmHg 87%
    12:00 +5°C° 0 mm 3 mps 760 mmHg 85%
    13:00 +5°C° 0 mm 4 mps 760 mmHg 86%
    14:00 +6°C° 0 mm 4 mps 759 mmHg 87%
    15:00 +6°C° 0 mm 5 mps 759 mmHg 88%
    16:00 +6°C° 0.1 mm 5 mps 759 mmHg 89%
    17:00 +5°C° 0.1 mm 6 mps 758 mmHg 89%
    18:00 +5°C° 0.1 mm 7 mps 758 mmHg 90%
    19:00 +6°C° 0 mm 7 mps 758 mmHg 90%
    20:00 +6°C° 0 mm 7 mps 757 mmHg 90%
    21:00 +6°C° 0 mm 7 mps 757 mmHg 91%
    22:00 +7°C° 0 mm 8 mps 756 mmHg 90%
    23:00 +7°C° 0 mm 8 mps 756 mmHg 89%

    18 December, Tuesday

    Time Temperature Precipitation Wind Pressure Humidity
    00:00 +9°C° 0 mm 8 mps 755 mmHg 88%
    01:00 +8°C° 0.1 mm 9 mps 754 mmHg 87%
    02:00 +8°C° 0.1 mm 9 mps 753 mmHg 86%
    03:00 +8°C° 0.1 mm 9 mps 752 mmHg 85%
    04:00 +8°C° 0.1 mm 10 mps 751 mmHg 84%
    05:00 +9°C° 0.1 mm 10 mps 750 mmHg 83%
    06:00 +9°C° 0.1 mm 11 mps 749 mmHg 82%
    07:00 +8°C° 0.8 mm 11 mps 749 mmHg 82%
    08:00 +8°C° 0.8 mm 12 mps 748 mmHg 82%
    09:00 +8°C° 0.8 mm 12 mps 748 mmHg 82%
    10:00 +7°C° 1.6 mm 12 mps 747 mmHg 82%
    11:00 +7°C° 1.6 mm 12 mps 746 mmHg 82%
    12:00 +7°C° 1.6 mm 12 mps 746 mmHg 82%
    13:00 +6°C° 1.6 mm 10 mps 745 mmHg 83%
    14:00 +6°C° 1.6 mm 9 mps 744 mmHg 85%
    15:00 +6°C° 1.6 mm 8 mps 743 mmHg 86%
    16:00 +6°C° 0.4 mm 7 mps 743 mmHg 87%
    17:00 +7°C° 0.4 mm 6 mps 743 mmHg 88%
    18:00 +6°C° 0.4 mm 4 mps 743 mmHg 89%
    19:00 +6°C° 0 mm 5 mps 743 mmHg 88%
    20:00 +6°C° 0.1 mm 5 mps 743 mmHg 88%
    21:00 +6°C° 0.1 mm 5 mps 743 mmHg 87%
    22:00 +6°C° 0.2 mm 5 mps 743 mmHg 86%
    23:00 +5°C° 0.2 mm 6 mps 743 mmHg 85%
    Show more